Tracking 29042 objects as of 20-Jun-2024
HD Live streaming from Space Station
objects crossing your sky now

URSA MAIOR

Track URSA MAIOR now!
10-day predictions
URSA MAIOR is classified as:


NORAD ID: 42776
Int'l Code: 2017-036M
Perigee: 270.5 km
Apogee: 283.1 km
Inclination: 97.1 °
Period: 89.9 minutes
Semi major axis: 6647 km
RCS: Unknown
Launch date: June 23, 2017
Source: Italy (IT)
Launch site: SRIHARIKOTA (SRI)

Uplink (MHz):
Downlink (MHz): 435.950
Beacon (MHz):
Mode: 9600bps FSK
Call sign: URSAMR
Status: Inactive

Your satellite tracking list
Your tracking list is empty




NASA's NSSDC Master Catalog

Two Line Element Set (TLE):
1 42776U 17036M   24172.59070536  .00615927  17586-3  10995-2 0  9990
2 42776  97.0935 207.1454 0009446 199.0865 161.0062 16.01719582389955
Source of the keplerian elements: AMSAT